Location: Madrid
(40.4000°N, 3.6830°W)
Time: 19:57:14
(UTC+02:00)

ISS - Pass Details

Date: 25 September 2020
Orbit: 419 x 421 km, 51.6° (Epoch: 30 September)

Event Time Altitude Azimuth Distance (km) Brightness Sun altitude
Rises 20:54:13 0° 286° (WNW) 2,365 2.1 -9.9°
Reaches altitude 10° 20:57:02 10° 312° (NW) 1,502 0.0 -10.5°
Maximum altitude 20:59:01 15° 348° (NNW) 1,253 -1.1 -10.9°
Drops below altitude 10° 21:00:59 10° 24° (NNE) 1,503 -1.1 -11.2°
Enters shadow 21:02:33 - 41° (NE) 1,943 -0.7 -11.5°
